This is the latest recevied weather packets stored in our database for station/object RUSSARO. If no packets are shown the sender has not sent any weather packets the latest 1 day(s).
| Time | Temp. | Humidity | Pressure | Rain* | Wind** | Luminosity | Snow |
|---|---|---|---|---|---|---|---|
| 1777978040 | 8.89° C | 68% | 1006.2 hPa | 0 mm | 10.28 m/s, 275° | - | - |
| 1777976839 | 8.33° C | 72% | 1005.9 hPa | 0 mm | 11.18 m/s, 271° | - | - |
| 1777975639 | 8.33° C | 72% | 1005.8 hPa | 0 mm | 11.18 m/s, 270° | - | - |
| 1777974439 | 8.33° C | 74% | 1005.5 hPa | 0 mm | 11.62 m/s, 270° | - | - |
| 1777973239 | 7.78° C | 78% | 1005.2 hPa | 0 mm | 12.07 m/s, 267° | - | - |
| 1777972039 | 8.33° C | 71% | 1004.9 hPa | 0 mm | 11.62 m/s, 271° | - | - |
| 1777970840 | 7.78° C | 78% | 1004.6 hPa | 0 mm | 11.62 m/s, 270° | - | - |
| 1777969639 | 7.78° C | 80% | 1004.2 hPa | 0 mm | 12.07 m/s, 274° | - | - |
| 1777968439 | 8.89° C | 72% | 1004 hPa | 0 mm | 12.07 m/s, 277° | - | - |
| 1777967239 | 8.33° C | 73% | 1003.6 hPa | 0 mm | 12.52 m/s, 276° | - | - |
| 1777966039 | 8.33° C | 73% | 1003.2 hPa | 0 mm | 12.07 m/s, 273° | - | - |
| 1777964839 | 8.33° C | 76% | 1002.9 hPa | 0 mm | 11.62 m/s, 272° | - | - |
| 1777963639 | 7.78° C | 78% | 1002.7 hPa | 0 mm | 12.52 m/s, 267° | - | - |
| 1777962438 | 7.78° C | 77% | 1002.4 hPa | 0 mm | 13.41 m/s, 261° | - | - |
| 1777961239 | 7.78° C | 77% | 1002.2 hPa | 0 mm | 13.41 m/s, 259° | - | - |
| 1777960038 | 7.22° C | 77% | 1002.1 hPa | 0 mm | 14.75 m/s, 257° | - | - |
| 1777958839 | 7.22° C | 78% | 1002 hPa | 0 mm | 13.41 m/s, 251° | - | - |
| 1777957638 | 6.67° C | 79% | 1001.9 hPa | 0 mm | 12.96 m/s, 245° | - | - |
| 1777956438 | 6.67° C | 78% | 1001.8 hPa | 0 mm | 13.41 m/s, 247° | - | - |
| 1777955238 | 6.67° C | 79% | 1001.7 hPa | 0 mm | 13.41 m/s, 241° | - | - |
| 1777954038 | 6.67° C | 79% | 1001.6 hPa | 0 mm | 14.31 m/s, 239° | - | - |
| 1777952839 | 6.67° C | 76% | 1001.5 hPa | 0 mm | 14.31 m/s, 241° | - | - |
| 1777951638 | 6.67° C | 76% | 1001.4 hPa | 0 mm | 14.31 m/s, 240° | - | - |
* Rain latest hour (hover to see other rain measurements)
** Current wind speed in m/s (hover to see current wind gust speed)